This demonstration page uses our WeatherBlox Daily Observations layout. Learn more.

Left ArrowRight Arrow

Hourly Observations for October 29, 2015

Temp ( °F °C ) Dew Point ( °F °C ) Humidity (%) Winds ( mph kmh ) Pressure ( in mb ) Visibility ( mi km ) Precip ( " mm )
12:15 am 00:15 Clear 32 -0.1 24 -4.5 73 73 NNW 7 11 30.00 1016 10 16 N/A
12:35 am 00:35 Clear 30 -1.1 24 -4.7 77 77 NNW 6 9 30.03 1017 10 16 N/A
12:55 am 00:55 Clear 29 -1.7 23 -4.9 79 79 WNW 6 9 30.03 1017 10 16 N/A
1:15 am 01:15 Clear 29 -1.5 23 -4.8 78 78 W 7 11 30.03 1017 10 16 N/A
1:35 am 01:35 Clear 29 -1.7 24 -4.5 81 81 WNW 7 11 30.03 1017 10 16 N/A
1:55 am 01:55 Clear 29 -1.7 24 -4.6 81 81 WNW 7 11 30.03 1017 10 16 N/A
2:15 am 02:15 Clear 28 -2 24 -4.6 83 83 WNW 8 13 30.06 1018 10 16 N/A
2:35 am 02:35 Clear 29 -1.8 24 -4.5 82 82 WNW 7 11 30.06 1018 10 16 N/A
2:55 am 02:55 Clear 27 -2.7 23 -5.1 84 84 WNW 6 9 30.09 1019 10 16 N/A
3:15 am 03:15 Clear 27 -2.8 23 -5 85 85 WNW 6 9 30.09 1019 10 16 N/A
3:35 am 03:35 Clear 28 -2 24 -4.5 83 83 NW 8 13 30.06 1018 10 16 N/A
3:55 am 03:55 Clear 27 -2.9 23 -5.2 84 84 NW 7 11 30.12 1020 10 16 N/A
4:15 am 04:15 Clear 26 -3.1 23 -5.1 86 86 WNW 7 11 30.12 1020 10 16 N/A
4:35 am 04:35 Clear 27 -2.7 24 -4.7 86 86 W 7 11 30.12 1020 10 16 N/A
4:55 am 04:55 Clear 27 -2.6 24 -4.5 87 87 WNW 9 15 30.12 1020 10 16 N/A
5:15 am 05:15 Clear 29 -1.8 24 -4.4 83 83 W 8 13 30.09 1019 10 16 N/A
5:35 am 05:35 Clear 28 -2.5 23 -4.8 84 84 WNW 7 11 30.09 1019 10 16 N/A
5:55 am 05:55 Clear 27 -2.8 23 -4.8 86 86 WNW 8 13 30.12 1020 10 16 N/A
6:15 am 06:15 Clear 28 -2.5 24 -4.6 86 86 WNW 9 15 30.09 1019 10 16 N/A
6:35 am 06:35 Clear 27 -2.6 24 -4.6 86 86 WNW 8 13 30.15 1021 10 16 N/A
6:55 am 06:55 Clear 28 -2.5 24 -4.5 86 86 WNW 10 17 30.12 1020 10 16 N/A
7:15 am 07:15 Clear 27 -2.8 23 -4.8 86 86 NW 9 15 30.15 1021 10 16 N/A
7:35 am 07:35 Clear 27 -3 23 -5.1 86 86 NW 8 13 30.15 1021 10 16 N/A
7:55 am 07:55 Clear 26 -3.3 23 -5.1 88 88 NW 8 13 30.15 1021 10 16 N/A
8:15 am 08:15 Sunny 25 -3.9 22 -5.8 87 87 NW 7 11 30.15 1021 10 16 N/A
8:35 am 08:35 Sunny 26 -3.6 23 -5.2 89 89 NW 6 9 30.18 1022 10 16 N/A
8:55 am 08:55 Sunny 27 -3 24 -4.6 89 89 NW 8 13 30.18 1022 10 16 N/A
9:15 am 09:15 Sunny 29 -1.8 25 -4 85 85 NW 8 13 30.18 1022 10 16 N/A
9:35 am 09:35 Sunny 30 -0.9 26 -3.6 82 82 NW 8 13 30.15 1021 10 16 N/A
9:55 am 09:55 Sunny 32 0.1 26 -3.1 79 79 NNW 10 17 30.15 1021 10 16 N/A
10:15 am 10:15 Sunny 35 1.6 27 -2.7 73 73 NW 10 17 30.12 1020 10 16 N/A
10:35 am 10:35 Sunny 36 2.1 27 -3 69 69 NW 9 15 30.12 1020 10 16 N/A
10:55 am 10:55 Sunny 38 3.1 27 -2.9 65 65 NNW 12 19 30.12 1020 10 16 N/A
11:15 am 11:15 Sunny 39 3.8 26 -3.1 61 61 NNW 10 17 30.09 1019 10 16 N/A
11:35 am 11:35 Sunny 40 4.7 27 -3 58 58 NNW 7 11 30.09 1019 10 16 N/A
11:55 am 11:55 Sunny 41 5.2 27 -2.8 57 57 WNW 9 15 30.09 1019 10 16 N/A
12:15 pm 12:15 Sunny 43 5.9 27 -2.8 54 54 NW 7 11 30.09 1019 10 16 N/A
12:35 pm 12:35 Sunny 44 6.4 27 -2.9 52 52 W 7 11 30.09 1019 10 16 N/A
12:55 pm 12:55 Sunny 45 7 27 -3 49 49 NNW 12 19 30.09 1019 10 16 N/A
1:15 pm 13:15 Sunny 46 7.6 27 -3 47 47 NNW 9 15 30.06 1018 10 16 N/A
1:35 pm 13:35 Sunny 47 8.2 26 -3.1 45 45 WNW 8 13 30.06 1018 10 16 N/A
1:55 pm 13:55 Sunny 47 8.5 26 -3.4 43 43 NW 9 15 30.03 1017 10 16 N/A
2:15 pm 14:15 Sunny 48 8.7 26 -3.5 42 42 WNW 7 11 30.03 1017 10 16 N/A
2:35 pm 14:35 Sunny 48 9.1 26 -3.5 41 41 NW 6 9 30.03 1017 10 16 N/A
2:55 pm 14:55 Sunny 50 10 25 -3.7 38 38 W 3 6 29.97 1015 10 16 N/A
3:15 pm 15:15 Sunny 50 10 25 -4.1 37 37 NNW 5 7 29.97 1015 10 16 N/A
3:35 pm 15:35 Sunny 51 10.5 24 -4.2 36 36 W 5 7 29.97 1015 10 16 N/A
3:55 pm 15:55 Sunny 51 10.7 26 -3.6 37 37 Calm 29.97 1015 10 16 N/A
4:15 pm 16:15 Sunny 50 10.2 26 -3.6 38 38 Calm 29.97 1015 10 16 N/A
4:35 pm 16:35 Sunny 50 9.8 27 -2.8 41 41 Calm 29.94 1014 10 16 N/A
4:55 pm 16:55 Sunny 51 10.8 25 -3.8 36 36 Calm 29.94 1014 10 16 N/A
5:15 pm 17:15 Sunny 51 10.6 24 -4.3 35 35 Calm 29.94 1014 10 16 N/A
5:35 pm 17:35 Sunny 51 10.3 27 -3 39 39 S 3 6 29.94 1014 10 16 N/A
5:55 pm 17:55 Sunny 50 9.9 27 -2.8 41 41 ESE 3 6 29.94 1014 10 16 N/A
6:15 pm 18:15 Sunny 47 8.3 29 -1.9 49 49 ESE 3 6 29.97 1015 10 16 N/A
6:35 pm 18:35 Sunny 46 8 27 -3 46 46 ESE 5 7 29.97 1015 10 16 N/A
6:55 pm 18:55 Clear 44 6.4 28 -2.4 54 54 ESE 5 7 30.00 1016 10 16 N/A
7:15 pm 19:15 Clear 42 5.5 27 -2.6 56 56 ESE 6 9 30.00 1016 10 16 N/A
7:35 pm 19:35 Clear 42 5.5 28 -2.2 58 58 ESE 6 9 30.00 1016 10 16 N/A
7:55 pm 19:55 Clear 43 6.2 28 -2.1 56 56 SE 6 9 30.00 1016 10 16 N/A
8:15 pm 20:15 Clear 42 5.8 28 -2 58 58 SE 6 9 30.00 1016 10 16 N/A
8:35 pm 20:35 Clear 44 6.5 28 -2.2 54 54 SE 6 9 29.97 1015 10 16 N/A
8:55 pm 20:55 Clear 42 5.8 28 -2.1 57 57 SE 6 9 30.00 1016 10 16 N/A
9:15 pm 21:15 Clear 41 4.8 28 -2.5 60 60 SE 5 7 30.00 1016 10 16 N/A
9:35 pm 21:35 Clear 38 3.5 28 -2.5 65 65 SSE 7 11 30.03 1017 10 16 N/A
9:55 pm 21:55 Clear 37 2.7 28 -2.3 70 70 SE 6 9 30.03 1017 10 16 N/A
10:15 pm 22:15 Clear 37 2.6 28 -2.5 69 69 SSE 5 7 30.06 1018 10 16 N/A
10:35 pm 22:35 Clear 35 1.9 27 -2.9 71 71 SSE 6 9 30.06 1018 10 16 N/A
10:55 pm 22:55 Clear 37 2.7 27 -3 66 66 SSE 5 7 30.06 1018 10 16 N/A
11:15 pm 23:15 Clear 36 2.1 26 -3.1 69 69 SSE 5 7 30.06 1018 10 16 N/A
11:35 pm 23:35 Clear 34 1.2 27 -3 74 74 S 6 9 30.06 1018 10 16 N/A
11:55 pm 23:55 Clear 35 1.6 27 -2.6 74 74 SSE 6 9 30.06 1018 10 16 N/A

Powered by AerisWeather